Location: Saluda
(35.2377°N, 82.3468°W)
Time: 04:04:45
(UTC+00:00)

Vanguard 2 Rocket - Pass Details

Date: 10 October 2022
Orbit: 555 x 3321 km, 32.9° (Epoch: 05 December)

Event Time Altitude Azimuth Distance (km) Brightness Sun altitude
Rises 03:17:49 0° 257° (WSW) 7,281 11.8 -50.5°
Reaches altitude 10° 03:22:57 10° 256° (WSW) 6,144 11.3 -51.3°
Enters shadow 03:35:28 48° 250° (WSW) 3,330 9.5 -53.2°
Maximum altitude 03:41:38 80° 174° (S) 2,437 - -54.0°
Drops below altitude 10° 03:52:46 10° 89° (E) 3,902 - -55.5°
Sets 03:55:17 0° 88° (E) 4,597 - -55.8°
